Location: Winthrop
(48.4780°N, 120.1850°W)
Time: 02:53:30
(UTC-07:00)

XW-2A - Pass Details

Date: 24 May 2022
Orbit: 398 x 413 km, 97.2° (Epoch: 27 June)

Event Time Altitude Azimuth Distance (km) Brightness Sun altitude
Exits shadow 21:39:14 - 158° (SSE) 1,620 ? -7.7°
Reaches altitude 10° 21:39:31 10° 158° (SSE) 1,501 ? -7.7°
Maximum altitude 21:42:42 67° 76° (ENE) 461 ? -8.1°
Drops below altitude 10° 21:45:55 10° 352° (N) 1,512 ? -8.5°
Sets 21:47:56 0° 350° (N) 2,379 ? -8.7°
